,,PA_Meas_PMT16A,,PR_Meas_QMR101_102,,RH_Meas_QMH101,,SR_Meas_QMS101,,TA_Meas_QMH101,,GenWind,,GenWind,
time,status,PA,status,PR,status,RH,status,SR,status,TA,status,DirAvg,status,SpdAvg,
2016-06-01, 07:06:04,VALID,918.333,VALID,0,VALID,83.0114,VALID,110.664,VALID,21.6924,VALID,156,VALID,0,
2016-06-01, 07:07:04,VALID,918.358,VALID,0,VALID,83.2858,VALID,113.028,VALID,21.751,VALID,138,VALID,0,
2016-06-01, 07:08:04,VALID,918.382,VALID,0,VALID,82.8665,VALID,115.177,VALID,21.8485,VALID,141,VALID,0,
2016-06-01, 07:09:04,VALID,918.395,VALID,0,VALID,81.723,VALID,117.218,VALID,21.9283,VALID,146,VALID,0,
2016-06-01, 07:10:04,VALID,918.4,VALID,0,VALID,81.8602,VALID,119.582,VALID,21.9266,VALID,122,VALID,0,
2016-06-01, 07:11:04,VALID,918.453,VALID,0,VALID,81.5934,VALID,121.731,VALID,21.9851,VALID,136,VALID,0,
2016-06-01, 07:12:04,VALID,918.452,VALID,0,VALID,81.0293,VALID,124.739,VALID,22.0047,VALID,139,VALID,0,
2016-06-01, 07:13:04,VALID,918.46,VALID,0,VALID,81.723,VALID,128.714,VALID,22.1022,VALID,93,VALID,0,
2016-06-01, 07:14:04,VALID,918.493,VALID,0,VALID,81.8679,VALID,131.938,VALID,22.1591,VALID,86,VALID,0,
2016-06-01, 07:15:04,VALID,918.458,VALID,0,VALID,80.206,VALID,134.409,VALID,22.2583,VALID,125,VALID,0,
2016-06-01, 07:16:04,VALID,918.471,VALID,0,VALID,81.2351,VALID,137.417,VALID,22.3152,VALID,118,VALID,0,
2016-06-01, 07:17:04,VALID,918.491,VALID,0,VALID,81.1055,VALID,140.318,VALID,22.473,VALID,87,VALID,0,
2016-06-01, 07:18:04,VALID,918.527,VALID,0,VALID,79.5961,VALID,143.434,VALID,22.5689,VALID,117,VALID,0,
2016-06-01, 07:19:04,VALID,918.536,VALID,0,VALID,79.8324,VALID,146.657,VALID,22.647,VALID,97,VALID,0,
2016-06-01, 07:20:04,VALID,918.54,VALID,0,VALID,78.7041,VALID,150.095,VALID,22.6682,VALID,139,VALID,0,
2016-06-01, 07:21:04,VALID,918.523,VALID,0,VALID,79.1311,VALID,153.319,VALID,22.6487,VALID,128,VALID,0,
2016-06-01, 07:22:04,VALID,918.518,VALID,0,VALID,79.253,VALID,156.972,VALID,22.6274,VALID,127,VALID,0,
2016-06-01, 07:23:04,VALID,918.549,VALID,0,VALID,79.5275,VALID,159.98,VALID,22.6292,VALID,138,VALID,0,
2016-06-01, 07:24:04,VALID,918.551,VALID,0,VALID,79.4665,VALID,163.203,VALID,22.6079,VALID,124,VALID,0,
2016-06-01, 07:25:04,VALID,918.574,VALID,0,VALID,80.1755,VALID,165.459,VALID,22.686,VALID,98,VALID,0,
2016-06-01, 07:26:04,VALID,918.601,VALID,0,VALID,78.8566,VALID,169.112,VALID,22.7055,VALID,144,VALID,0,
2016-06-01, 07:27:04,VALID,918.613,VALID,0,VALID,80.4194,VALID,172.336,VALID,22.7445,VALID,122,VALID,0,
2016-06-01, 07:28:04,VALID,918.636,VALID,0,VALID,79.8477,VALID,175.989,VALID,22.7641,VALID,144,VALID,0,
2016-06-01, 07:29:04,VALID,918.622,VALID,0,VALID,80.4118,VALID,178.89,VALID,22.8421,VALID,139,VALID,0,
2016-06-01, 07:30:04,VALID,918.636,VALID,0,VALID,80.5643,VALID,182.865,VALID,22.8404,VALID,119,VALID,0,
2016-06-01, 07:31:04,VALID,918.631,VALID,0,VALID,80.5338,VALID,186.518,VALID,22.8989,VALID,128,VALID,0,
2016-06-01, 07:32:04,VALID,918.66,VALID,0,VALID,80.1831,VALID,190.386,VALID,22.9592,VALID,146,VALID,0,
2016-06-01, 07:33:04,VALID,918.655,VALID,0,VALID,80.1907,VALID,193.287,VALID,22.9787,VALID,130,VALID,0,
2016-06-01, 07:34:04,VALID,918.649,VALID,0,VALID,80.1069,VALID,196.51,VALID,23.0356,VALID,135,VALID,0,
2016-06-01, 07:35:04,VALID,918.66,VALID,0,VALID,79.4284,VALID,198.659,VALID,23.0763,VALID,143,VALID,0.182031,
2016-06-01, 07:36:04,VALID,918.643,VALID,0,VALID,79.84,VALID,199.518,VALID,23.0959,VALID,143,VALID,0,
2016-06-01, 07:37:04,VALID,918.637,VALID,0,VALID,79.4131,VALID,199.411,VALID,23.1154,VALID,118,VALID,0.389453,
2016-06-01, 07:38:04,VALID,918.664,VALID,0,VALID,79.6266,VALID,201.774,VALID,23.1154,VALID,130,VALID,0,
2016-06-01, 07:39:04,VALID,918.668,VALID,0,VALID,79.9849,VALID,205.857,VALID,23.1154,VALID,132,VALID,0.707031,
2016-06-01, 07:40:04,VALID,918.672,VALID,0,VALID,79.8477,VALID,209.725,VALID,23.1544,VALID,124,VALID,0,
2016-06-01, 07:41:04,VALID,918.655,VALID,0,VALID,80.7091,VALID,213.7,VALID,23.1739,VALID,118,VALID,0,
2016-06-01, 07:42:04,VALID,918.672,VALID,0,VALID,79.901,VALID,219.18,VALID,23.1544,VALID,136,VALID,0,
2016-06-01, 07:43:04,VALID,918.669,VALID,0,VALID,79.7638,VALID,222.618,VALID,23.2112,VALID,154,VALID,0.0566406,
2016-06-01, 07:44:04,VALID,918.675,VALID,0,VALID,80.0916,VALID,225.626,VALID,23.252,VALID,123,VALID,1.8,
2016-06-01, 07:45:04,VALID,918.671,VALID,0,VALID,79.7943,VALID,228.098,VALID,23.252,VALID,129,VALID,2.11328,
2016-06-01, 07:46:04,VALID,918.662,VALID,0,VALID,80.1831,VALID,230.784,VALID,23.2698,VALID,148,VALID,1.14375,
2016-06-01, 07:47:04,VALID,918.673,VALID,0,VALID,79.6952,VALID,231.965,VALID,23.3088,VALID,143,VALID,0.490234,
2016-06-01, 07:48:04,VALID,918.642,VALID,0,VALID,80.4194,VALID,232.61,VALID,23.3088,VALID,142,VALID,0.0464844,
2016-06-01, 07:49:04,VALID,918.655,VALID,0,VALID,80.3889,VALID,236.156,VALID,23.3088,VALID,146,VALID,0.820703,
2016-06-01, 07:50:04,VALID,918.681,VALID,0,VALID,79.8934,VALID,239.379,VALID,23.3478,VALID,149,VALID,0.540625,
2016-06-01, 07:51:04,VALID,918.689,VALID,0,VALID,78.9786,VALID,244.644,VALID,23.3265,VALID,148,VALID,1.48906,
2016-06-01, 07:52:04,VALID,918.694,VALID,0,VALID,80.5414,VALID,248.834,VALID,23.3674,VALID,145,VALID,0,
2016-06-01, 07:53:04,VALID,918.672,VALID,0,VALID,79.9468,VALID,252.487,VALID,23.3674,VALID,151,VALID,0.0207031,
2016-06-01, 07:54:04,VALID,918.638,VALID,0,VALID,80.0992,VALID,256.14,VALID,23.3869,VALID,150,VALID,0.266016,
2016-06-01, 07:55:04,VALID,918.618,VALID,0,VALID,80.1755,VALID,259.9,VALID,23.4064,VALID,138,VALID,1.03633,
2016-06-01, 07:56:04,VALID,918.649,VALID,0,VALID,80.3432,VALID,263.123,VALID,23.4064,VALID,124,VALID,0.00585938,
2016-06-01, 07:57:04,VALID,918.668,VALID,0,VALID,80.8311,VALID,267.851,VALID,23.4454,VALID,150,VALID,0,
2016-06-01, 07:58:04,VALID,918.628,VALID,0,VALID,80.4194,VALID,271.826,VALID,23.5235,VALID,157,VALID,0.446094,
2016-06-01, 07:59:04,VALID,918.657,VALID,0,VALID,79.9773,VALID,274.834,VALID,23.5803,VALID,138,VALID,0.090625,
2016-06-01, 08:00:04,VALID,918.682,VALID,0,VALID,80.0611,VALID,277.521,VALID,23.6406,VALID,135,VALID,1.80313,
2016-06-01, 08:01:04,VALID,918.638,VALID,0,VALID,80.3356,VALID,281.281,VALID,23.5803,VALID,146,VALID,1.17578,
2016-06-01, 08:02:04,VALID,918.65,VALID,0,VALID,80.8768,VALID,284.719,VALID,23.6388,VALID,132,VALID,0,
2016-06-01, 08:03:04,VALID,918.715,VALID,0,VALID,80.6024,VALID,288.479,VALID,23.6779,VALID,137,VALID,0,
2016-06-01, 08:04:04,VALID,918.739,VALID,0,VALID,80.5033,VALID,291.38,VALID,23.7169,VALID,152,VALID,0,
2016-06-01, 08:05:04,VALID,918.784,VALID,0,VALID,80.5185,VALID,294.281,VALID,23.7755,VALID,135,VALID,0.362891,
2016-06-01, 08:06:04,VALID,918.826,VALID,0,VALID,80.4728,VALID,296.538,VALID,23.8163,VALID,133,VALID,0.015625,
2016-06-01, 08:07:04,VALID,918.857,VALID,0,VALID,81.3495,VALID,299.976,VALID,23.8731,VALID,100,VALID,0.297656,
2016-06-01, 08:08:04,VALID,918.88,VALID,0,VALID,80.0001,VALID,302.877,VALID,24.0097,VALID,86,VALID,0.401563,
2016-06-01, 08:09:04,VALID,918.87,VALID,0,VALID,79.5199,VALID,303.951,VALID,24.0878,VALID,90,VALID,0.0417969,
2016-06-01, 08:10:04,VALID,918.899,VALID,0,VALID,80.3279,VALID,308.893,VALID,24.1659,VALID,130,VALID,0.00195313,
2016-06-01, 08:11:04,VALID,918.944,VALID,0,VALID,79.1311,VALID,312.546,VALID,24.1854,VALID,152,VALID,0.258594,
2016-06-01, 08:12:04,VALID,918.946,VALID,0,VALID,77.5149,VALID,315.984,VALID,24.244,VALID,109,VALID,0.857422,
2016-06-01, 08:13:04,VALID,918.949,VALID,0,VALID,76.7221,VALID,318.563,VALID,24.2049,VALID,73,VALID,3.00156,
2016-06-01, 08:14:04,VALID,918.951,VALID,0,VALID,77.5835,VALID,319.96,VALID,24.1269,VALID,94,VALID,0.998047,
2016-06-01, 08:15:04,VALID,918.968,VALID,0,VALID,79.0777,VALID,325.009,VALID,24.1269,VALID,138,VALID,0.162109,
2016-06-01, 08:16:04,VALID,918.97,VALID,0,VALID,79.8553,VALID,327.588,VALID,24.1854,VALID,119,VALID,0.240234,
2016-06-01, 08:17:04,VALID,918.939,VALID,0,VALID,77.4005,VALID,328.448,VALID,24.1659,VALID,100,VALID,1.59063,
2016-06-01, 08:18:04,VALID,918.963,VALID,0,VALID,79.0396,VALID,332.638,VALID,24.2049,VALID,67,VALID,0.513281,
2016-06-01, 08:19:04,VALID,918.974,VALID,0,VALID,79.6113,VALID,338.762,VALID,24.3026,VALID,62,VALID,0,
2016-06-01, 08:20:04,VALID,918.963,VALID,0,VALID,75.9978,VALID,342.093,VALID,24.4392,VALID,138,VALID,2.54453,
2016-06-01, 08:21:04,VALID,918.946,VALID,0,VALID,76.7373,VALID,344.564,VALID,24.4197,VALID,105,VALID,0.872266,
2016-06-01, 08:22:04,VALID,918.982,VALID,0,VALID,78.4068,VALID,349.184,VALID,24.4197,VALID,134,VALID,0.697656,
2016-06-01, 08:23:04,VALID,918.963,VALID,0,VALID,77.2786,VALID,350.795,VALID,24.4216,VALID,145,VALID,1.73555,
2016-06-01, 08:24:04,VALID,918.964,VALID,0,VALID,77.5225,VALID,354.448,VALID,24.3611,VALID,137,VALID,1.61758,
2016-06-01, 08:25:04,VALID,918.946,VALID,0,VALID,78.4602,VALID,358.101,VALID,24.3806,VALID,110,VALID,1.44102,
2016-06-01, 08:26:04,VALID,918.962,VALID,0,VALID,77.6826,VALID,362.292,VALID,24.4002,VALID,126,VALID,1.6207,
2016-06-01, 08:27:04,VALID,918.97,VALID,0,VALID,78.1324,VALID,365.837,VALID,24.4197,VALID,123,VALID,2.0918,
2016-06-01, 08:28:04,VALID,918.928,VALID,0,VALID,77.1642,VALID,366.912,VALID,24.3806,VALID,143,VALID,2.86094,
2016-06-01, 08:29:04,VALID,918.918,VALID,0,VALID,77.6826,VALID,372.284,VALID,24.3825,VALID,103,VALID,2.24688,
2016-06-01, 08:30:04,VALID,918.954,VALID,0,VALID,79.1616,VALID,374.218,VALID,24.3611,VALID,94,VALID,0.00195313,
2016-06-01, 08:31:04,VALID,918.931,VALID,0,VALID,79.4436,VALID,377.441,VALID,24.4197,VALID,113,VALID,1.26016,
2016-06-01, 08:32:04,VALID,918.974,VALID,0,VALID,78.5822,VALID,378.837,VALID,24.5954,VALID,82,VALID,1.21484,
2016-06-01, 08:33:04,VALID,918.948,VALID,0,VALID,76.1732,VALID,382.813,VALID,24.6735,VALID,79,VALID,2.1793,
2016-06-01, 08:34:04,VALID,919,VALID,0,VALID,77.6979,VALID,385.821,VALID,24.7321,VALID,88,VALID,0.435937,
2016-06-01, 08:35:04,VALID,918.993,VALID,0,VALID,75.6624,VALID,390.226,VALID,24.7126,VALID,136,VALID,2.95859,
2016-06-01, 08:36:04,VALID,918.998,VALID,0,VALID,76.2875,VALID,392.053,VALID,24.654,VALID,120,VALID,2.41641,
2016-06-01, 08:37:04,VALID,918.999,VALID,0,VALID,76.257,VALID,394.846,VALID,24.6735,VALID,112,VALID,0.638281,
2016-06-01, 08:38:04,VALID,919.021,VALID,0,VALID,77.1566,VALID,399.466,VALID,24.6521,VALID,89,VALID,0.650781,
2016-06-01, 08:39:04,VALID,919.061,VALID,0,VALID,77.21,VALID,401.508,VALID,24.7516,VALID,134,VALID,0.904688,
2016-06-01, 08:40:04,VALID,918.998,VALID,0,VALID,76.6535,VALID,404.194,VALID,24.7907,VALID,63,VALID,2.57539,
2016-06-01, 08:41:04,VALID,919.065,VALID,0,VALID,76.9965,VALID,407.417,VALID,24.6735,VALID,108,VALID,2.79648,
2016-06-01, 08:42:04,VALID,919.139,VALID,0,VALID,78.2391,VALID,410.855,VALID,24.6912,VALID,72,VALID,0.0890625,
2016-06-01, 08:43:04,VALID,919.074,VALID,0,VALID,75.4108,VALID,413.219,VALID,24.7711,VALID,98,VALID,2.69961,
2016-06-01, 08:44:04,VALID,919.114,VALID,0,VALID,75.7691,VALID,418.591,VALID,24.6345,VALID,119,VALID,1.89258,
2016-06-01, 08:45:04,VALID,919.134,VALID,0,VALID,78.4907,VALID,421.169,VALID,24.7126,VALID,64,VALID,2.44492,
2016-06-01, 08:46:04,VALID,919.085,VALID,0,VALID,75.6777,VALID,424.393,VALID,24.7126,VALID,132,VALID,2.28437,
2016-06-01, 08:47:04,VALID,919.038,VALID,0,VALID,75.9673,VALID,424.607,VALID,24.7711,VALID,102,VALID,2.72305,
2016-06-01, 08:48:04,VALID,919.071,VALID,0,VALID,75.1821,VALID,428.26,VALID,24.7126,VALID,138,VALID,3.23555,
2016-06-01, 08:49:04,VALID,919.08,VALID,0,VALID,78.2696,VALID,432.236,VALID,24.6912,VALID,87,VALID,1.74648,
2016-06-01, 08:50:04,VALID,919.065,VALID,0,VALID,75.4718,VALID,435.889,VALID,24.7107,VALID,96,VALID,2.84102,
2016-06-01, 08:51:04,VALID,919.069,VALID,0,VALID,77.2862,VALID,438.252,VALID,24.7497,VALID,105,VALID,1.61914,
2016-06-01, 08:52:04,VALID,919.095,VALID,0,VALID,77.5073,VALID,442.12,VALID,24.7497,VALID,111,VALID,1.46875,
2016-06-01, 08:53:04,VALID,919.058,VALID,0,VALID,77.7512,VALID,447.063,VALID,24.7888,VALID,86,VALID,1.3875,
2016-06-01, 08:54:04,VALID,919.076,VALID,0,VALID,76.844,VALID,448.137,VALID,24.8297,VALID,98,VALID,2.00547,
2016-06-01, 08:55:04,VALID,919.118,VALID,0,VALID,75.1898,VALID,451.253,VALID,24.8083,VALID,107,VALID,1.77344,
2016-06-01, 08:56:04,VALID,919.088,VALID,0,VALID,75.8606,VALID,455.765,VALID,24.8864,VALID,151,VALID,0.263281,
2016-06-01, 08:57:04,VALID,919.101,VALID,0,VALID,75.2965,VALID,457.592,VALID,25.0231,VALID,59,VALID,1.06797,
2016-06-01, 08:58:04,VALID,919.119,VALID,0,VALID,74.5189,VALID,461.675,VALID,25.1598,VALID,57,VALID,0.799219,
2016-06-01, 08:59:04,VALID,919.074,VALID,0,VALID,74.5494,VALID,460.815,VALID,25.2183,VALID,78,VALID,2.6707,
2016-06-01, 09:00:04,VALID,919.151,VALID,0,VALID,72.8417,VALID,465.113,VALID,25.1988,VALID,108,VALID,2.73867,
2016-06-01, 09:01:04,VALID,919.167,VALID,0,VALID,73.6346,VALID,469.518,VALID,25.1402,VALID,75,VALID,0.610937,
2016-06-01, 09:02:04,VALID,919.181,VALID,0,VALID,73.0933,VALID,471.022,VALID,25.2203,VALID,137,VALID,1.97031,
2016-06-01, 09:03:04,VALID,919.177,VALID,0,VALID,74.0615,VALID,475.212,VALID,25.1422,VALID,127,VALID,2.12891,
2016-06-01, 09:04:04,VALID,919.21,VALID,0,VALID,73.9243,VALID,480.477,VALID,25.1031,VALID,114,VALID,2.31875,
2016-06-01, 09:05:04,VALID,919.174,VALID,0,VALID,72.6664,VALID,488.213,VALID,25.1226,VALID,79,VALID,2.23711,
2016-06-01, 09:06:04,VALID,919.091,VALID,0,VALID,73.1238,VALID,492.403,VALID,25.1598,VALID,96,VALID,2.61289,
2016-06-01, 09:07:04,VALID,919.159,VALID,0,VALID,74.3207,VALID,498.849,VALID,25.2164,VALID,134,VALID,2.42227,
2016-06-01, 09:08:04,VALID,919.08,VALID,0,VALID,72.5673,VALID,504.651,VALID,25.236,VALID,157,VALID,1.66406,
2016-06-01, 09:09:04,VALID,919.058,VALID,0,VALID,72.392,VALID,512.065,VALID,25.316,VALID,144,VALID,0.615234,
2016-06-01, 09:10:04,VALID,919.089,VALID,0,VALID,74.7247,VALID,519.263,VALID,25.4312,VALID,109,VALID,1.15586,
2016-06-01, 09:11:04,VALID,919.06,VALID,0,VALID,71.5839,VALID,523.883,VALID,25.4117,VALID,131,VALID,3.39805,
2016-06-01, 09:12:04,VALID,919.058,VALID,0,VALID,74.3436,VALID,499.279,VALID,25.4117,VALID,107,VALID,1.37266,
2016-06-01, 09:13:04,VALID,919.066,VALID,0,VALID,71.2332,VALID,501.535,VALID,25.3531,VALID,123,VALID,1.68164,
2016-06-01, 09:14:04,VALID,919.053,VALID,0,VALID,74.1987,VALID,424.93,VALID,25.3141,VALID,107,VALID,1.36328,
2016-06-01, 09:15:04,VALID,919.055,VALID,0,VALID,73.4821,VALID,413.971,VALID,25.2965,VALID,96,VALID,1.95859,
2016-06-01, 09:16:04,VALID,919.079,VALID,0,VALID,73.3906,VALID,414.615,VALID,25.2574,VALID,130,VALID,1.31602,
2016-06-01, 09:17:04,VALID,919,VALID,0,VALID,73.6041,VALID,462.534,VALID,25.2965,VALID,98,VALID,0.658594,
2016-06-01, 09:18:04,VALID,919.041,VALID,0,VALID,73.8099,VALID,597.265,VALID,25.3941,VALID,89,VALID,1.79531,
2016-06-01, 09:19:04,VALID,919.046,VALID,0,VALID,72.9332,VALID,602.1,VALID,25.5113,VALID,108,VALID,1.56719,
2016-06-01, 09:20:04,VALID,919.024,VALID,0,VALID,71.8736,VALID,620.15,VALID,25.6284,VALID,116,VALID,0.736328,
2016-06-01, 09:21:04,VALID,919.059,VALID,0,VALID,73.0552,VALID,626.597,VALID,25.7847,VALID,137,VALID,1.16719,
2016-06-01, 09:22:04,VALID,918.981,VALID,0,VALID,71.5915,VALID,657.755,VALID,25.8042,VALID,65,VALID,1.26484,
2016-06-01, 09:23:04,VALID,919.017,VALID,0,VALID,71.4771,VALID,586.199,VALID,26.019,VALID,99,VALID,0.170703,
2016-06-01, 09:24:04,VALID,919.003,VALID,0,VALID,71.9727,VALID,394.309,VALID,26.273,VALID,140,VALID,0.0375,
2016-06-01, 09:25:04,VALID,919.006,VALID,0,VALID,71.8812,VALID,397.21,VALID,26.2514,VALID,108,VALID,0.852734,
2016-06-01, 09:26:04,VALID,919.006,VALID,0,VALID,68.4049,VALID,379.804,VALID,26.2144,VALID,103,VALID,1.48438,
2016-06-01, 09:27:04,VALID,918.958,VALID,0,VALID,71.096,VALID,507.122,VALID,26.1753,VALID,82,VALID,1.59805,
2016-06-01, 09:28:04,VALID,918.978,VALID,0,VALID,70.8139,VALID,626.812,VALID,26.2339,VALID,55,VALID,0.644531,
2016-06-01, 09:29:04,VALID,918.954,VALID,0,VALID,70.974,VALID,619.291,VALID,26.312,VALID,46,VALID,1.98555,
2016-06-01, 09:30:04,VALID,918.956,VALID,0,VALID,69.7085,VALID,582.546,VALID,26.2905,VALID,127,VALID,1.69375,
2016-06-01, 09:31:04,VALID,918.955,VALID,0,VALID,69.8762,VALID,516.147,VALID,26.271,VALID,116,VALID,1.58516,
2016-06-01, 09:32:04,VALID,918.95,VALID,0,VALID,70.204,VALID,460.278,VALID,26.2925,VALID,80,VALID,0.0628906,
2016-06-01, 09:33:04,VALID,918.895,VALID,0,VALID,70.4099,VALID,399.789,VALID,26.2124,VALID,96,VALID,2.66328,
2016-06-01, 09:34:04,VALID,918.942,VALID,0,VALID,70.5852,VALID,416.12,VALID,26.1733,VALID,112,VALID,0.185156,
2016-06-01, 09:35:04,VALID,918.999,VALID,0,VALID,70.0897,VALID,383.995,VALID,26.1948,VALID,94,VALID,1.21914,
2016-06-01, 09:36:04,VALID,918.988,VALID,0,VALID,71.3857,VALID,398.392,VALID,26.1147,VALID,104,VALID,0.921094,
2016-06-01, 09:37:04,VALID,918.954,VALID,0,VALID,70.7682,VALID,488.32,VALID,25.9975,VALID,135,VALID,1.18398,
2016-06-01, 09:38:04,VALID,918.954,VALID,0,VALID,71.5839,VALID,407.954,VALID,26.0561,VALID,66,VALID,1.15234,
2016-06-01, 09:39:04,VALID,918.978,VALID,0,VALID,72.4834,VALID,431.161,VALID,26.1342,VALID,51,VALID,3.31797,
2016-06-01, 09:40:04,VALID,918.93,VALID,0,VALID,68.5574,VALID,423.963,VALID,26.0952,VALID,22,VALID,1.88555,
2016-06-01, 09:41:04,VALID,918.966,VALID,0,VALID,69.5942,VALID,439.327,VALID,26.1147,VALID,59,VALID,2.21641,
2016-06-01, 09:42:04,VALID,919.008,VALID,0,VALID,70.1507,VALID,462.642,VALID,26.1147,VALID,101,VALID,0.964453,
2016-06-01, 09:43:04,VALID,919.05,VALID,0,VALID,70.4861,VALID,529.363,VALID,26.1147,VALID,90,VALID,1.85898,
2016-06-01, 09:44:04,VALID,919.04,VALID,0,VALID,70.974,VALID,436.641,VALID,26.0561,VALID,137,VALID,2.11289,
2016-06-01, 09:45:04,VALID,919.003,VALID,0,VALID,69.861,VALID,615.745,VALID,26.0366,VALID,164,VALID,0.0289063,
2016-06-01, 09:46:04,VALID,919.015,VALID,0,VALID,69.4951,VALID,579.323,VALID,26.1948,VALID,114,VALID,0.988672,
2016-06-01, 09:47:04,VALID,919.015,VALID,0,VALID,71.1875,VALID,604.571,VALID,26.2534,VALID,129,VALID,0.568359,
2016-06-01, 09:48:04,VALID,919.043,VALID,0,VALID,68.0542,VALID,550.743,VALID,26.3882,VALID,125,VALID,0.346484,
2016-06-01, 09:49:04,VALID,918.999,VALID,0,VALID,68.2143,VALID,800.544,VALID,26.3491,VALID,137,VALID,2.05508,
2016-06-01, 09:50:04,VALID,919.009,VALID,0,VALID,68.5955,VALID,455.228,VALID,26.3882,VALID,91,VALID,1.72383,
2016-06-01, 09:51:04,VALID,918.945,VALID,0,VALID,68.565,VALID,662.482,VALID,26.5054,VALID,93,VALID,0.923047,
2016-06-01, 09:52:04,VALID,918.992,VALID,0,VALID,67.7569,VALID,640.564,VALID,26.7007,VALID,55,VALID,0,
2016-06-01, 09:53:04,VALID,918.994,VALID,0,VALID,65.7901,VALID,617.787,VALID,26.857,VALID,147,VALID,1.25312,
2016-06-01, 09:54:04,VALID,918.986,VALID,0,VALID,65.0201,VALID,669.251,VALID,26.7984,VALID,157,VALID,2.31719,
2016-06-01, 09:55:04,VALID,918.923,VALID,0,VALID,66.156,VALID,668.069,VALID,26.603,VALID,149,VALID,0.0492188,
2016-06-01, 09:56:04,VALID,918.861,VALID,0,VALID,66.1408,VALID,689.88,VALID,26.6616,VALID,133,VALID,0.609375,
2016-06-01, 09:57:04,VALID,918.866,VALID,0,VALID,67.0327,VALID,682.144,VALID,26.7593,VALID,82,VALID,1.52734,
2016-06-01, 09:58:04,VALID,918.87,VALID,0,VALID,64.2654,VALID,688.375,VALID,26.7788,VALID,142,VALID,0.623047,
2016-06-01, 09:59:04,VALID,918.879,VALID,0,VALID,63.5412,VALID,607.365,VALID,26.7202,VALID,122,VALID,0.631641,
2016-06-01, 10:00:04,VALID,918.85,VALID,0,VALID,63.3963,VALID,525.602,VALID,26.7593,VALID,151,VALID,0,
2016-06-01, 10:01:04,VALID,918.863,VALID,0,VALID,63.8156,VALID,304.596,VALID,26.8785,VALID,144,VALID,0,
2016-06-01, 10:02:04,VALID,918.847,VALID,0,VALID,64.9591,VALID,461.46,VALID,26.9351,VALID,141,VALID,0,
2016-06-01, 10:03:04,VALID,918.868,VALID,0,VALID,64.3797,VALID,387.863,VALID,26.8199,VALID,141,VALID,0.496484,
2016-06-01, 10:04:04,VALID,918.839,VALID,0,VALID,66.339,VALID,773.147,VALID,26.7613,VALID,82,VALID,1.75391,
2016-06-01, 10:05:04,VALID,918.876,VALID,0,VALID,66.3847,VALID,627.349,VALID,26.8199,VALID,25,VALID,1.43477,
2016-06-01, 10:06:04,VALID,918.883,VALID,0,VALID,66.1408,VALID,729.418,VALID,26.9546,VALID,153,VALID,0.0628906,
2016-06-01, 10:07:04,VALID,918.896,VALID,0,VALID,65.691,VALID,540.536,VALID,27.1325,VALID,174,VALID,0,
2016-06-01, 10:08:04,VALID,918.898,VALID,0,VALID,63.2362,VALID,783.676,VALID,27.2693,VALID,192,VALID,0.748438,
2016-06-01, 10:09:04,VALID,918.886,VALID,0,VALID,61.4447,VALID,722.971,VALID,27.3258,VALID,145,VALID,0.000390625,
2016-06-01, 10:10:04,VALID,918.84,VALID,0,VALID,62.8627,VALID,795.494,VALID,27.3454,VALID,202,VALID,0.974219,
2016-06-01, 10:11:04,VALID,918.816,VALID,0,VALID,61.9174,VALID,841.909,VALID,27.4451,VALID,191,VALID,2.78828,
2016-06-01, 10:12:04,VALID,918.833,VALID,0,VALID,63.6936,VALID,856.306,VALID,27.2302,VALID,152,VALID,3.35547,
2016-06-01, 10:13:04,VALID,918.782,VALID,0,VALID,65.1116,VALID,825.148,VALID,26.9372,VALID,131,VALID,0.619141,
2016-06-01, 10:14:04,VALID,918.815,VALID,0,VALID,63.9376,VALID,411.392,VALID,26.8981,VALID,140,VALID,1.99883,
2016-06-01, 10:15:04,VALID,918.79,VALID,0,VALID,65.2641,VALID,262.694,VALID,26.8004,VALID,163,VALID,0.809375,
2016-06-01, 10:16:04,VALID,918.79,VALID,0,VALID,65.7138,VALID,256.892,VALID,26.857,VALID,196,VALID,0.278516,
2016-06-01, 10:17:04,VALID,918.793,VALID,0,VALID,64.3035,VALID,270.644,VALID,26.5835,VALID,141,VALID,1.46367,
2016-06-01, 10:18:04,VALID,918.752,VALID,0,VALID,64.7838,VALID,697.508,VALID,26.4272,VALID,144,VALID,0.257031,
2016-06-01, 10:19:04,VALID,918.711,VALID,0,VALID,66.9488,VALID,735.757,VALID,26.4272,VALID,145,VALID,0.00234375,
2016-06-01, 10:20:04,VALID,918.688,VALID,0,VALID,65.3251,VALID,776.799,VALID,26.603,VALID,164,VALID,1.75703,
2016-06-01, 10:21:04,VALID,918.638,VALID,0,VALID,66.0416,VALID,735.542,VALID,26.7202,VALID,176,VALID,0.288672,
2016-06-01, 10:22:04,VALID,918.651,VALID,0,VALID,63.3963,VALID,721.79,VALID,26.7593,VALID,159,VALID,2.56367,
2016-06-01, 10:23:04,VALID,918.625,VALID,0,VALID,64.86,VALID,708.252,VALID,26.8004,VALID,154,VALID,0.397266,
2016-06-01, 10:24:04,VALID,918.568,VALID,0,VALID,66.156,VALID,728.881,VALID,26.9156,VALID,171,VALID,0.523828,
2016-06-01, 10:25:04,VALID,918.526,VALID,0,VALID,64.6313,VALID,726.087,VALID,27.1109,VALID,173,VALID,1.97852,
2016-06-01, 10:26:04,VALID,918.462,VALID,0,VALID,65.3174,VALID,714.484,VALID,27.0523,VALID,92,VALID,1.99063,
2016-06-01, 10:27:04,VALID,918.436,VALID,0,VALID,65.9197,VALID,711.153,VALID,27.0503,VALID,176,VALID,1.76016,
2016-06-01, 10:28:04,VALID,918.441,VALID,0,VALID,65.7901,VALID,711.583,VALID,27.0132,VALID,121,VALID,1.98828,
2016-06-01, 10:29:04,VALID,918.422,VALID,0,VALID,67.9246,VALID,685.475,VALID,26.9762,VALID,79,VALID,0.0550781,
2016-06-01, 10:30:04,VALID,918.404,VALID,0,VALID,68.3134,VALID,335.216,VALID,27.0914,VALID,61,VALID,0.404687,
2016-06-01, 10:31:04,VALID,918.392,VALID,0,VALID,65.9197,VALID,766.055,VALID,27.1911,VALID,55,VALID,1.96289,
2016-06-01, 10:32:04,VALID,918.4,VALID,0,VALID,64.9439,VALID,709.649,VALID,27.3063,VALID,160,VALID,0.641406,
2016-06-01, 10:33:04,VALID,918.377,VALID,0,VALID,65.7062,VALID,408.706,VALID,27.3454,VALID,130,VALID,1.53672,
2016-06-01, 10:34:04,VALID,918.377,VALID,0,VALID,65.9807,VALID,237.552,VALID,27.404,VALID,71,VALID,3.89063,
2016-06-01, 10:35:04,VALID,918.393,VALID,0,VALID,61.8869,VALID,248.404,VALID,27.1695,VALID,55,VALID,1.8457,
2016-06-01, 10:36:04,VALID,918.418,VALID,0,VALID,65.63,VALID,278.81,VALID,26.8981,VALID,123,VALID,1.04062,
2016-06-01, 10:37:04,VALID,918.408,VALID,0,VALID,64.1434,VALID,306.959,VALID,26.6812,VALID,161,VALID,2.73594,
2016-06-01, 10:38:04,VALID,918.424,VALID,0,VALID,64.8676,VALID,315.447,VALID,26.5444,VALID,144,VALID,2.42852,
2016-06-01, 10:39:04,VALID,918.389,VALID,0,VALID,64.9134,VALID,277.091,VALID,26.3296,VALID,147,VALID,3.22422,
2016-06-01, 10:40:04,VALID,918.404,VALID,0,VALID,66.3542,VALID,259.148,VALID,26.1928,VALID,89,VALID,2.92148,
2016-06-01, 10:41:04,VALID,918.354,VALID,0,VALID,65.8739,VALID,241.205,VALID,26.0757,VALID,85,VALID,0.486719,
2016-06-01, 10:42:04,VALID,918.356,VALID,0,VALID,67.9628,VALID,262.586,VALID,26.0366,VALID,116,VALID,0.261328,